Skip Page Navigation
NASA JPL Caltech
NASA Logo - Jet Propulsion Laboratory + View the NASA Portal
+ Center for Near-Earth Object Studies
JPL Home Earth Solar System Stars & Galaxies Technology
JPL Solar System Dynamics
BODIES ORBITS EPHEMERIDES TOOLS PHYSICAL DATA DISCOVERY FAQ SITE MAP
IMPORTANT: The SSD Announcement email list is now available. Major changes are coming in the near future, including possible hostname and/or URL changes. To be notified of such changes, subscribe to this email list.

Please visit this page for more details.


JPL Small-Body Database Browser
Search: [ help ]  
(2019 UD10)
Classification: Apollo [NEO]          SPK-ID: 3884102
Ephemeris | Orbit Diagram | Orbital Elements | Mission Design | Physical Parameters | Close-Approach Data ]

[ show orbit diagram ]
Orbital Elements at Epoch 2458784.5 (2019-Oct-28.0) TDB
Reference: JPL 1 (heliocentric ecliptic J2000)
 Element Value Uncertainty (1-sigma)   Units 
e .5765875708413093 0.00094834  
a 2.278829075456515 0.0050013 au
q .9648845544764962 4.3661e-05 au
i 11.62405036540011 0.01157 deg
node 33.68140126284896 0.00037496 deg
peri 336.4097786131588 0.0049948 deg
M 5.393387643351744 0.01854 deg
tp 2458765.675424571709
(2019-Oct-09.17542457)
0.0028147 TDB
period 1256.51030526952
3.44
4.1364
0.01132
d
yr
n .2865077974213512 0.00094319 deg/d
Q 3.592773596436533 0.007885 au
  Orbit Determination Parameters
   # obs. used (total)      15  
   first obs. used      2019-10-28  
   last obs. used      2019-10-28  
   planetary ephem.      DE431  
   SB-pert. ephem.      SB431-N16  
   condition code      8  
   norm. resid. RMS      .33202  
   source      ORB  
   producer      Otto Matic  
   solution date      2019-Oct-28 13:42:04  

Additional Information
 Earth MOID = .00107655 au 
 Jupiter MOID = 1.88474 au 
 T_jup = 3.343 
[ show covariance matrix ]

Ephemeris | Orbit Diagram | Orbital Elements | Mission Design | Physical Parameters | Close-Approach Data ]

Physical Parameter Table
Parameter Symbol Value Units Sigma Reference Notes
absolute magnitude H 28.127   .1641 1 autocmod 2.8

[ hide close-approach data ]
Close-Approach Data   ...sorted by Date/Time (TDB)
Date/Time (TDB) Time Uncertainty
(days_HH:MM)
Body Nominal Distance (au) Minimum Distance (au) Maximum Distance (au) V-relative (km/s) V-infinity (km/s) JD (TDB) Time Uncertainty (minutes) Semi-major axis (km) Semi-minor axis (km) range-LOV angle (deg) N-sigma BP Orbit Ref. Reference Modified
2019-Oct-27 07:00 00:03 Moon 0.0031040066446183 0.00310174097466869 0.00310627350558924 12.2425708040104 12.2417083443277 2458783.791683477 2.88121486078133 160.034360075376 60.2617495514604 -49.870251711564 6700.47387928981 T 1 CATAB v2.0f-lin.ifort 2019-Oct-28 13:42:07 2019-Nov-06 09:22
2019-Oct-27 10:08 00:02 Earth 0.00112100172546133 0.00111837005434696 0.00112363297406085 11.529603086312 11.321572340063 2458783.922568196 2.42748694620966 126.751963244211 8.58178665657278 -0.569229951565697 769.754712510798 T 1 CATAB v2.0f-lin.ifort 2019-Oct-28 13:42:07 2019-Nov-06 09:22
Ephemeris | Orbit Diagram | Orbital Elements | Mission Design | Physical Parameters | Close-Approach Data ]
ABOUT SSD CREDITS/AWARDS PRIVACY/COPYRIGHT GLOSSARY LINKS
FirstGov
(server date/time)  
NASA Home Page
Site Manager:   Ryan S. Park
Webmaster  Alan B. Chamberlin